Time,TemperatureF,DewpointF,PressureIn,WindDirection,WindDirectionDegrees,WindSpeedMPH,WindSpeedGustMPH,Humidity,HourlyPrecipIn,Conditions,Clouds,dailyrainin,SoftwareType,DateUTC
2013-08-04 00:01:00,63.1,61.9,30.01,West,278,1.0,1.0,96,0.00,,---,0.00,VWS V14.01,2013-08-04 04:01:00,
2013-08-04 00:02:00,63.0,61.8,30.01,West,278,0.0,1.0,96,0.00,,---,0.00,VWS V14.01,2013-08-04 04:02:00,
2013-08-04 00:07:00,62.9,61.8,30.00,WNW,297,1.0,2.0,96,0.00,,---,0.00,VWS V14.01,2013-08-04 04:07:00,
2013-08-04 00:12:00,62.8,61.7,30.00,West,276,1.0,2.0,96,0.00,,---,0.00,VWS V14.01,2013-08-04 04:12:00,
2013-08-04 00:17:00,62.7,61.5,30.01,WNW,282,1.0,1.0,96,0.00,,---,0.00,VWS V14.01,2013-08-04 04:17:00,
2013-08-04 00:22:00,62.6,61.5,30.00,WNW,295,2.0,3.0,96,0.00,,---,0.00,VWS V14.01,2013-08-04 04:22:00,
2013-08-04 00:27:00,62.5,61.6,30.00,WNW,290,1.0,2.0,97,0.00,,---,0.00,VWS V14.01,2013-08-04 04:27:00,
2013-08-04 00:32:00,62.6,61.7,30.00,WNW,289,2.0,2.0,97,0.00,,---,0.00,VWS V14.01,2013-08-04 04:32:00,
2013-08-04 00:37:00,62.6,61.7,30.00,West,277,1.0,2.0,97,0.00,,---,0.00,VWS V14.01,2013-08-04 04:37:00,
2013-08-04 00:42:00,62.6,61.7,30.00,West,276,1.0,2.0,97,0.00,,---,0.00,VWS V14.01,2013-08-04 04:42:00,
2013-08-04 00:47:00,62.5,61.6,30.00,WNW,282,1.0,3.0,97,0.00,,---,0.00,VWS V14.01,2013-08-04 04:47:00,
2013-08-04 00:52:00,62.5,61.6,30.00,WNW,298,2.0,3.0,97,0.00,,---,0.00,VWS V14.01,2013-08-04 04:52:00,
2013-08-04 00:57:00,62.4,61.5,30.00,WNW,295,2.0,3.0,97,0.00,,---,0.00,VWS V14.01,2013-08-04 04:57:00,
2013-08-04 01:02:00,62.4,61.5,30.00,WNW,298,2.0,3.0,97,0.00,,---,0.00,VWS V14.01,2013-08-04 05:02:00,
2013-08-04 01:07:00,62.5,61.9,29.99,West,273,3.0,3.0,98,0.00,,---,0.00,VWS V14.01,2013-08-04 05:07:00,
2013-08-04 01:12:00,62.3,61.7,30.00,WNW,301,2.0,4.0,98,0.00,,---,0.00,VWS V14.01,2013-08-04 05:12:00,
2013-08-04 01:17:00,62.3,61.7,30.00,WNW,293,2.0,3.0,98,0.00,,---,0.00,VWS V14.01,2013-08-04 05:17:00,
2013-08-04 01:22:00,62.3,61.7,30.00,WNW,295,2.0,4.0,98,0.00,,---,0.00,VWS V14.01,2013-08-04 05:22:00,
2013-08-04 01:27:00,62.3,61.7,30.00,WNW,298,2.0,4.0,98,0.00,,---,0.00,VWS V14.01,2013-08-04 05:27:00,
2013-08-04 01:32:00,62.3,61.7,29.99,West,263,1.0,3.0,98,0.00,,---,0.00,VWS V14.01,2013-08-04 05:32:00,
2013-08-04 01:37:00,62.4,61.8,29.99,WNW,294,2.0,3.0,98,0.00,,---,0.00,VWS V14.01,2013-08-04 05:37:00,
2013-08-04 01:42:00,62.4,61.8,29.99,WNW,284,2.0,3.0,98,0.00,,---,0.00,VWS V14.01,2013-08-04 05:42:00,
2013-08-04 01:47:00,62.3,61.7,29.99,WNW,299,2.0,3.0,98,0.00,,---,0.00,VWS V14.01,2013-08-04 05:47:00,
2013-08-04 01:52:00,62.2,61.6,29.99,NW,312,2.0,3.0,98,0.00,,---,0.00,VWS V14.01,2013-08-04 05:52:00,
2013-08-04 01:57:00,62.1,61.5,29.99,WNW,297,2.0,3.0,98,0.00,,---,0.00,VWS V14.01,2013-08-04 05:57:00,
2013-08-04 02:02:00,62.0,61.7,29.99,West,276,2.0,3.0,99,0.00,,---,0.00,VWS V14.01,2013-08-04 06:02:00,
2013-08-04 02:07:00,61.9,61.3,29.98,WNW,299,1.0,2.0,98,0.00,,---,0.00,VWS V14.01,2013-08-04 06:07:00,
2013-08-04 02:12:00,61.6,61.3,29.99,SSW,203,1.0,3.0,99,0.00,,---,0.00,VWS V14.01,2013-08-04 06:12:00,
2013-08-04 02:17:00,61.5,61.2,29.98,NW,316,1.0,2.0,99,0.00,,---,0.00,VWS V14.01,2013-08-04 06:17:00,
2013-08-04 02:22:00,61.1,60.8,29.98,NW,308,3.0,3.0,99,0.00,,---,0.00,VWS V14.01,2013-08-04 06:22:00,
2013-08-04 02:27:00,60.9,60.6,29.98,WNW,295,1.0,3.0,99,0.00,,---,0.00,VWS V14.01,2013-08-04 06:27:00,
2013-08-04 02:32:00,61.1,61.1,29.98,WNW,282,3.0,3.0,100,0.00,,---,0.00,VWS V14.01,2013-08-04 06:32:00,
2013-08-04 02:37:00,61.1,61.1,29.98,West,279,0.0,2.0,100,0.00,,---,0.00,VWS V14.01,2013-08-04 06:37:00,
2013-08-04 02:42:00,60.9,60.9,29.98,West,274,3.0,4.0,100,0.00,,---,0.00,VWS V14.01,2013-08-04 06:42:00,
2013-08-04 02:47:00,60.9,60.9,29.97,WNW,289,2.0,3.0,100,0.00,,---,0.00,VWS V14.01,2013-08-04 06:47:00,
2013-08-04 02:52:00,60.9,60.9,29.97,NW,306,1.0,2.0,100,0.00,,---,0.00,VWS V14.01,2013-08-04 06:52:00,
2013-08-04 02:57:00,60.7,60.7,29.97,NW,305,1.0,1.0,100,0.00,,---,0.00,VWS V14.01,2013-08-04 06:57:00,
2013-08-04 03:02:00,60.6,60.6,29.97,WNW,303,2.0,3.0,100,0.00,,---,0.00,VWS V14.01,2013-08-04 07:02:00,
2013-08-04 03:07:00,60.4,60.4,29.97,NW,307,1.0,3.0,100,0.00,,---,0.00,VWS V14.01,2013-08-04 07:07:00,
2013-08-04 03:12:00,60.4,60.4,29.97,WNW,292,1.0,3.0,100,0.00,,---,0.00,VWS V14.01,2013-08-04 07:12:00,
2013-08-04 03:17:00,60.6,60.6,29.97,WSW,258,2.0,2.0,100,0.00,,---,0.00,VWS V14.01,2013-08-04 07:17:00,
2013-08-04 03:22:00,60.8,60.8,29.97,NW,309,1.0,2.0,100,0.00,,---,0.00,VWS V14.01,2013-08-04 07:22:00,
2013-08-04 03:27:00,61.0,61.0,29.97,WNW,299,2.0,3.0,100,0.00,,---,0.00,VWS V14.01,2013-08-04 07:27:00,
2013-08-04 03:32:00,61.0,61.0,29.97,WNW,298,2.0,2.0,100,0.00,,---,0.00,VWS V14.01,2013-08-04 07:32:00,
2013-08-04 03:37:00,61.0,61.0,29.97,WNW,303,3.0,3.0,100,0.00,,---,0.00,VWS V14.01,2013-08-04 07:37:00,
2013-08-04 03:42:00,61.1,61.1,29.97,WNW,293,0.0,3.0,100,0.00,,---,0.00,VWS V14.01,2013-08-04 07:42:00,
2013-08-04 03:47:00,61.0,61.0,29.97,West,279,3.0,3.0,100,0.00,,---,0.00,VWS V14.01,2013-08-04 07:47:00,
2013-08-04 03:52:00,61.0,61.0,29.96,WNW,289,2.0,4.0,100,0.00,,---,0.00,VWS V14.01,2013-08-04 07:52:00,
2013-08-04 03:57:00,61.0,61.0,29.96,WSW,258,1.0,3.0,100,0.00,,---,0.00,VWS V14.01,2013-08-04 07:57:00,
2013-08-04 04:02:00,61.0,61.0,29.97,NW,316,3.0,3.0,100,0.00,,---,0.00,VWS V14.01,2013-08-04 08:02:00,
2013-08-04 04:07:00,61.1,61.1,29.96,WNW,282,1.0,4.0,100,0.00,,---,0.00,VWS V14.01,2013-08-04 08:07:00,
2013-08-04 04:12:00,61.1,61.1,29.97,NW,324,1.0,4.0,100,0.00,,---,0.00,VWS V14.01,2013-08-04 08:12:00,
2013-08-04 04:17:00,61.0,61.0,29.97,WNW,303,2.0,3.0,100,0.00,,---,0.00,VWS V14.01,2013-08-04 08:17:00,
2013-08-04 04:22:00,61.1,61.1,29.97,WNW,299,1.0,2.0,100,0.00,,---,0.00,VWS V14.01,2013-08-04 08:22:00,
2013-08-04 04:27:00,61.0,61.0,29.97,WNW,301,0.0,3.0,100,0.00,,---,0.00,VWS V14.01,2013-08-04 08:27:00,
2013-08-04 04:32:00,61.0,61.0,29.97,WNW,290,3.0,4.0,100,0.00,,---,0.00,VWS V14.01,2013-08-04 08:32:00,
2013-08-04 04:37:00,61.0,61.0,29.96,WNW,295,2.0,4.0,100,0.00,,---,0.00,VWS V14.01,2013-08-04 08:37:00,
2013-08-04 04:42:00,61.0,61.0,29.96,WNW,291,1.0,4.0,100,0.00,,---,0.00,VWS V14.01,2013-08-04 08:42:00,
2013-08-04 04:47:00,61.1,61.1,29.96,NW,314,2.0,4.0,100,0.00,,---,0.00,VWS V14.01,2013-08-04 08:47:00,
2013-08-04 04:52:00,61.2,61.2,29.97,WNW,289,2.0,3.0,100,0.00,,---,0.00,VWS V14.01,2013-08-04 08:52:00,
2013-08-04 04:57:00,61.4,61.4,29.97,WNW,295,2.0,2.0,100,0.00,,---,0.00,VWS V14.01,2013-08-04 08:57:00,
2013-08-04 05:02:00,61.6,61.6,29.97,WSW,257,2.0,4.0,100,0.00,,---,0.00,VWS V14.01,2013-08-04 09:02:00,
2013-08-04 05:07:00,61.7,61.7,29.97,NW,305,3.0,3.0,100,0.00,,---,0.00,VWS V14.01,2013-08-04 09:07:00,
2013-08-04 05:12:00,61.6,61.6,29.97,WNW,295,1.0,3.0,100,0.00,,---,0.00,VWS V14.01,2013-08-04 09:12:00,
2013-08-04 05:17:00,61.5,61.5,29.97,NW,313,1.0,3.0,100,0.00,,---,0.00,VWS V14.01,2013-08-04 09:17:00,
2013-08-04 05:22:00,61.3,61.3,29.97,WNW,284,0.0,2.0,100,0.00,,---,0.00,VWS V14.01,2013-08-04 09:22:00,
2013-08-04 05:27:00,61.4,61.4,29.97,West,259,4.0,4.0,100,0.00,,---,0.00,VWS V14.01,2013-08-04 09:27:00,
2013-08-04 05:32:00,61.5,61.5,29.96,WNW,297,1.0,3.0,100,0.00,,---,0.00,VWS V14.01,2013-08-04 09:32:00,
2013-08-04 05:37:00,61.5,61.5,29.96,WNW,293,2.0,2.0,100,0.00,,---,0.00,VWS V14.01,2013-08-04 09:37:00,
2013-08-04 05:42:00,61.3,61.3,29.96,WSW,255,2.0,4.0,100,0.00,,---,0.00,VWS V14.01,2013-08-04 09:42:00,
2013-08-04 05:47:00,61.3,61.3,29.96,SW,232,1.0,3.0,100,0.00,,---,0.00,VWS V14.01,2013-08-04 09:47:00,
2013-08-04 05:52:00,61.3,61.3,29.96,NW,311,3.0,3.0,100,0.00,,---,0.00,VWS V14.01,2013-08-04 09:52:00,
2013-08-04 05:57:00,61.3,61.3,29.96,SSW,209,4.0,4.0,100,0.00,,---,0.00,VWS V14.01,2013-08-04 09:57:00,
2013-08-04 06:02:00,61.3,61.3,29.96,WNW,293,2.0,6.0,100,0.00,,---,0.00,VWS V14.01,2013-08-04 10:02:00,
2013-08-04 06:07:00,61.3,61.3,29.96,WSW,251,2.0,5.0,100,0.00,,---,0.00,VWS V14.01,2013-08-04 10:07:00,
2013-08-04 06:12:00,61.2,61.2,29.96,West,264,1.0,3.0,100,0.00,,---,0.00,VWS V14.01,2013-08-04 10:12:00,
2013-08-04 06:17:00,61.2,61.2,29.96,SW,235,1.0,4.0,100,0.00,,---,0.00,VWS V14.01,2013-08-04 10:17:00,
2013-08-04 06:22:00,61.1,61.1,29.97,NW,317,2.0,4.0,100,0.00,,---,0.00,VWS V14.01,2013-08-04 10:22:00,
2013-08-04 06:27:00,61.0,61.0,29.97,NW,310,1.0,3.0,100,0.00,,---,0.00,VWS V14.01,2013-08-04 10:27:00,
2013-08-04 06:32:00,61.0,61.0,29.97,WNW,282,1.0,3.0,100,0.00,,---,0.00,VWS V14.01,2013-08-04 10:32:00,
2013-08-04 06:37:00,61.0,61.0,29.97,WNW,291,2.0,3.0,100,0.00,,---,0.00,VWS V14.01,2013-08-04 10:37:00,
2013-08-04 06:42:00,61.0,61.0,29.97,WNW,282,2.0,3.0,100,0.00,,---,0.00,VWS V14.01,2013-08-04 10:42:00,
2013-08-04 06:47:00,61.1,61.1,29.97,West,280,2.0,4.0,100,0.00,,---,0.00,VWS V14.01,2013-08-04 10:47:00,
2013-08-04 06:52:00,61.1,61.1,29.97,West,259,1.0,2.0,100,0.00,,---,0.00,VWS V14.01,2013-08-04 10:52:00,
2013-08-04 06:57:00,61.1,61.1,29.97,WNW,290,1.0,3.0,100,0.00,,---,0.00,VWS V14.01,2013-08-04 10:57:00,
2013-08-04 07:02:00,61.1,61.1,29.97,North,359,3.0,3.0,100,0.00,,---,0.00,VWS V14.01,2013-08-04 11:02:00,
2013-08-04 07:07:00,61.1,61.1,29.97,West,280,1.0,3.0,100,0.00,,---,0.00,VWS V14.01,2013-08-04 11:07:00,
2013-08-04 07:12:00,61.2,61.2,29.97,WNW,299,2.0,3.0,100,0.00,,---,0.00,VWS V14.01,2013-08-04 11:12:00,
2013-08-04 07:17:00,61.3,61.3,29.97,WNW,302,5.0,5.0,100,0.00,,---,0.00,VWS V14.01,2013-08-04 11:17:00,
2013-08-04 07:22:00,61.4,61.4,29.97,WNW,285,3.0,5.0,100,0.00,,---,0.00,VWS V14.01,2013-08-04 11:22:00,
2013-08-04 07:27:00,61.5,61.5,29.97,NNW,330,3.0,4.0,100,0.00,,---,0.00,VWS V14.01,2013-08-04 11:27:00,
2013-08-04 07:32:00,61.5,61.5,29.97,NW,307,3.0,4.0,100,0.00,,---,0.00,VWS V14.01,2013-08-04 11:32:00,
2013-08-04 07:37:00,61.6,61.6,29.97,WSW,257,3.0,3.0,100,0.00,,---,0.00,VWS V14.01,2013-08-04 11:37:00,
2013-08-04 07:42:00,61.6,61.6,29.97,West,270,2.0,4.0,100,0.00,,---,0.00,VWS V14.01,2013-08-04 11:42:00,
2013-08-04 07:47:00,61.6,61.6,29.97,North,353,3.0,3.0,100,0.00,,---,0.00,VWS V14.01,2013-08-04 11:47:00,
2013-08-04 07:52:00,61.7,61.7,29.98,NW,318,2.0,6.0,100,0.00,,---,0.00,VWS V14.01,2013-08-04 11:52:00,
2013-08-04 07:57:00,61.8,61.8,29.98,NW,314,3.0,3.0,100,0.00,,---,0.00,VWS V14.01,2013-08-04 11:57:00,
2013-08-04 08:02:00,61.9,61.9,29.98,WNW,303,3.0,3.0,100,0.00,,---,0.00,VWS V14.01,2013-08-04 12:02:00,
2013-08-04 08:07:00,61.9,61.9,29.98,South,186,5.0,5.0,100,0.00,,---,0.00,VWS V14.01,2013-08-04 12:07:00,
2013-08-04 08:12:00,62.0,62.0,29.98,West,271,1.0,3.0,100,0.00,,---,0.00,VWS V14.01,2013-08-04 12:12:00,
2013-08-04 08:17:00,62.3,62.3,29.98,West,266,1.0,1.0,100,0.00,,---,0.00,VWS V14.01,2013-08-04 12:17:00,
2013-08-04 08:22:00,62.7,62.7,29.99,NW,326,2.0,2.0,100,0.00,,---,0.00,VWS V14.01,2013-08-04 12:22:00,
2013-08-04 08:27:00,63.2,63.2,29.99,WSW,243,2.0,2.0,100,0.00,,---,0.00,VWS V14.01,2013-08-04 12:27:00,
2013-08-04 08:32:00,63.0,63.0,29.99,WNW,295,1.0,1.0,100,0.00,,---,0.00,VWS V14.01,2013-08-04 12:32:00,
2013-08-04 08:37:00,63.7,63.7,29.99,WNW,284,0.0,2.0,100,0.00,,---,0.00,VWS V14.01,2013-08-04 12:37:00,
2013-08-04 08:42:00,64.0,64.0,29.99,WSW,243,4.0,4.0,100,0.00,,---,0.00,VWS V14.01,2013-08-04 12:42:00,
2013-08-04 08:47:00,64.4,64.4,29.99,East,93,4.0,4.0,100,0.00,,---,0.00,VWS V14.01,2013-08-04 12:47:00,
2013-08-04 08:52:00,64.4,64.4,29.99,NNW,331,4.0,4.0,100,0.00,,---,0.00,VWS V14.01,2013-08-04 12:52:00,
2013-08-04 08:57:00,64.5,64.5,29.99,WNW,282,3.0,3.0,100,0.00,,---,0.00,VWS V14.01,2013-08-04 12:57:00,
2013-08-04 09:02:00,64.7,64.7,29.99,SW,224,3.0,6.0,100,0.00,,---,0.00,VWS V14.01,2013-08-04 13:02:00,
2013-08-04 09:07:00,65.7,65.7,29.99,WNW,298,1.0,4.0,100,0.00,,---,0.00,VWS V14.01,2013-08-04 13:07:00,
2013-08-04 09:12:00,65.9,65.9,29.99,West,273,2.0,3.0,100,0.00,,---,0.00,VWS V14.01,2013-08-04 13:12:00,
2013-08-04 09:17:00,65.5,65.5,29.99,West,266,5.0,5.0,100,0.00,,---,0.00,VWS V14.01,2013-08-04 13:17:00,
2013-08-04 09:22:00,65.4,65.4,29.99,West,264,2.0,5.0,100,0.00,,---,0.00,VWS V14.01,2013-08-04 13:22:00,
2013-08-04 09:27:00,65.4,65.1,29.99,WNW,282,4.0,4.0,99,0.00,,---,0.00,VWS V14.01,2013-08-04 13:27:00,
2013-08-04 09:32:00,65.8,65.8,29.99,WNW,290,3.0,3.0,100,0.00,,---,0.00,VWS V14.01,2013-08-04 13:32:00,
2013-08-04 09:37:00,66.1,65.5,29.98,WSW,237,2.0,5.0,98,0.00,,---,0.00,VWS V14.01,2013-08-04 13:37:00,
2013-08-04 09:42:00,66.2,65.3,29.99,West,272,2.0,4.0,97,0.00,,---,0.00,VWS V14.01,2013-08-04 13:42:00,
2013-08-04 09:47:00,67.1,66.5,29.98,WNW,297,0.0,3.0,98,0.00,,---,0.00,VWS V14.01,2013-08-04 13:47:00,
2013-08-04 09:52:00,66.9,65.7,29.99,WSW,257,3.0,4.0,96,0.00,,---,0.00,VWS V14.01,2013-08-04 13:52:00,
2013-08-04 09:57:00,67.1,65.3,29.99,West,268,3.0,4.0,94,0.00,,---,0.00,VWS V14.01,2013-08-04 13:57:00,
2013-08-04 10:02:00,67.2,65.4,29.99,West,273,2.0,2.0,94,0.00,,---,0.00,VWS V14.01,2013-08-04 14:02:00,
2013-08-04 10:07:00,67.0,65.5,29.99,WNW,291,2.0,6.0,95,0.00,,---,0.00,VWS V14.01,2013-08-04 14:07:00,
2013-08-04 10:12:00,68.3,67.1,29.99,WNW,283,2.0,3.0,96,0.00,,---,0.00,VWS V14.01,2013-08-04 14:12:00,
2013-08-04 10:17:00,69.6,67.5,29.99,WSW,243,3.0,5.0,93,0.00,,---,0.00,VWS V14.01,2013-08-04 14:17:00,
2013-08-04 10:22:00,70.5,68.1,29.98,WNW,293,2.0,5.0,92,0.00,,---,0.00,VWS V14.01,2013-08-04 14:22:00,
2013-08-04 10:27:00,70.3,67.2,29.98,NW,309,2.0,4.0,90,0.00,,---,0.00,VWS V14.01,2013-08-04 14:27:00,
2013-08-04 10:32:00,70.8,68.1,29.98,WSW,256,4.0,5.0,91,0.00,,---,0.00,VWS V14.01,2013-08-04 14:32:00,
2013-08-04 10:37:00,70.2,67.1,29.98,West,276,4.0,6.0,90,0.00,,---,0.00,VWS V14.01,2013-08-04 14:37:00,
2013-08-04 10:42:00,70.2,66.2,29.98,WSW,255,2.0,2.0,87,0.00,,---,0.00,VWS V14.01,2013-08-04 14:42:00,
2013-08-04 10:47:00,70.7,67.0,29.98,WSW,249,4.0,4.0,88,0.00,,---,0.00,VWS V14.01,2013-08-04 14:47:00,
2013-08-04 10:52:00,70.9,67.5,29.98,SW,222,4.0,4.0,89,0.00,,---,0.00,VWS V14.01,2013-08-04 14:52:00,
2013-08-04 10:57:00,71.1,66.4,29.99,West,259,2.0,3.0,85,0.00,,---,0.00,VWS V14.01,2013-08-04 14:57:00,
2013-08-04 11:02:00,71.6,67.5,29.99,West,269,2.0,3.0,87,0.00,,---,0.00,VWS V14.01,2013-08-04 15:02:00,
2013-08-04 11:07:00,71.7,66.6,29.98,WSW,248,1.0,4.0,84,0.00,,---,0.00,VWS V14.01,2013-08-04 15:07:00,
2013-08-04 11:12:00,71.6,66.9,29.98,WSW,239,7.0,7.0,85,0.00,,---,0.00,VWS V14.01,2013-08-04 15:12:00,
2013-08-04 11:17:00,71.6,66.5,29.98,NW,306,3.0,3.0,84,0.00,,---,0.00,VWS V14.01,2013-08-04 15:17:00,
2013-08-04 11:22:00,72.0,66.9,29.99,WSW,249,2.0,5.0,84,0.00,,---,0.00,VWS V14.01,2013-08-04 15:22:00,
2013-08-04 11:27:00,71.9,66.8,29.99,NW,308,2.0,2.0,84,0.00,,---,0.00,VWS V14.01,2013-08-04 15:27:00,
2013-08-04 11:32:00,72.4,68.3,29.99,NNE,18,3.0,6.0,87,0.00,,---,0.00,VWS V14.01,2013-08-04 15:32:00,
2013-08-04 11:37:00,72.1,66.3,29.99,NNW,327,3.0,3.0,82,0.00,,---,0.00,VWS V14.01,2013-08-04 15:37:00,
2013-08-04 11:42:00,72.0,65.1,29.99,WSW,255,3.0,3.0,79,0.00,,---,0.00,VWS V14.01,2013-08-04 15:42:00,
2013-08-04 11:47:00,72.6,66.8,29.99,SW,218,3.0,4.0,82,0.00,,---,0.00,VWS V14.01,2013-08-04 15:47:00,
2013-08-04 11:52:00,72.6,67.5,29.99,West,265,3.0,3.0,84,0.00,,---,0.00,VWS V14.01,2013-08-04 15:52:00,
2013-08-04 11:57:00,73.0,68.2,29.99,WNW,299,4.0,5.0,85,0.00,,---,0.00,VWS V14.01,2013-08-04 15:57:00,
2013-08-04 12:02:00,72.8,67.7,29.99,NW,305,5.0,6.0,84,0.00,,---,0.00,VWS V14.01,2013-08-04 16:02:00,
2013-08-04 12:07:00,73.6,68.1,29.99,SW,226,2.0,3.0,83,0.00,,---,0.00,VWS V14.01,2013-08-04 16:07:00,
2013-08-04 12:13:00,73.3,67.5,29.99,WNW,293,1.0,4.0,82,0.00,,---,0.00,VWS V14.01,2013-08-04 16:13:00,
2013-08-04 12:18:00,73.0,66.8,29.99,WSW,240,4.0,4.0,81,0.00,,---,0.00,VWS V14.01,2013-08-04 16:18:00,
2013-08-04 12:23:00,73.1,67.6,29.99,NNW,330,1.0,3.0,83,0.00,,---,0.00,VWS V14.01,2013-08-04 16:23:00,
2013-08-04 12:28:00,73.2,68.1,29.99,West,264,2.0,2.0,84,0.00,,---,0.00,VWS V14.01,2013-08-04 16:28:00,
2013-08-04 12:33:00,72.5,65.3,29.98,ENE,71,2.0,3.0,78,0.00,,---,0.00,VWS V14.01,2013-08-04 16:33:00,
2013-08-04 12:38:00,71.7,66.3,29.98,NW,316,2.0,5.0,83,0.00,,---,0.00,VWS V14.01,2013-08-04 16:38:00,
2013-08-04 12:43:00,71.9,65.4,29.98,WSW,248,3.0,4.0,80,0.00,,---,0.00,VWS V14.01,2013-08-04 16:43:00,
2013-08-04 12:47:00,72.4,67.3,29.98,SW,222,3.0,3.0,84,0.00,,---,0.00,VWS V14.01,2013-08-04 16:47:00,
2013-08-04 12:53:00,72.9,64.9,29.98,NNW,338,2.0,5.0,76,0.00,,---,0.00,VWS V14.01,2013-08-04 16:53:00,
2013-08-04 12:57:00,73.1,65.8,29.99,SW,228,1.0,1.0,78,0.00,,---,0.00,VWS V14.01,2013-08-04 16:57:00,
2013-08-04 13:02:00,73.0,66.1,29.99,West,277,2.0,3.0,79,0.00,,---,0.00,VWS V14.01,2013-08-04 17:02:00,
2013-08-04 13:07:00,72.9,67.1,29.99,WNW,303,2.0,2.0,82,0.00,,---,0.00,VWS V14.01,2013-08-04 17:07:00,
2013-08-04 13:12:00,72.8,67.0,29.99,WSW,253,3.0,5.0,82,0.00,,---,0.00,VWS V14.01,2013-08-04 17:12:00,
2013-08-04 13:13:00,72.8,67.0,29.99,WSW,251,4.0,5.0,82,0.00,,---,0.00,VWS V14.01,2013-08-04 17:13:00,
2013-08-04 13:17:00,73.2,66.3,29.99,WNW,283,2.0,2.0,79,0.00,,---,0.00,VWS V14.01,2013-08-04 17:17:00,
2013-08-04 13:23:00,73.8,67.6,29.99,West,259,1.0,1.0,81,0.00,,---,0.00,VWS V14.01,2013-08-04 17:23:00,
2013-08-04 13:27:00,74.8,66.7,29.99,WNW,284,2.0,4.0,76,0.00,,---,0.00,VWS V14.01,2013-08-04 17:27:00,
2013-08-04 13:33:00,73.6,65.6,29.99,NW,310,1.0,3.0,76,0.00,,---,0.00,VWS V14.01,2013-08-04 17:33:00,
2013-08-04 13:38:00,73.7,67.2,29.99,South,187,1.0,1.0,80,0.00,,---,0.00,VWS V14.01,2013-08-04 17:38:00,
2013-08-04 13:43:00,74.6,67.3,29.99,SW,236,2.0,8.0,78,0.00,,---,0.00,VWS V14.01,2013-08-04 17:43:00,
2013-08-04 13:47:00,74.9,66.4,29.99,SW,232,1.0,3.0,75,0.00,,---,0.00,VWS V14.01,2013-08-04 17:47:00,
2013-08-04 13:52:00,74.8,67.5,29.99,West,272,2.0,3.0,78,0.00,,---,0.00,VWS V14.01,2013-08-04 17:52:00,
2013-08-04 13:57:00,75.3,66.8,29.99,NW,309,1.0,2.0,75,0.00,,---,0.00,VWS V14.01,2013-08-04 17:57:00,
2013-08-04 14:02:00,75.1,66.2,29.98,SSW,199,3.0,3.0,74,0.00,,---,0.00,VWS V14.01,2013-08-04 18:02:00,
2013-08-04 14:07:00,75.5,67.8,29.98,West,262,1.0,1.0,77,0.00,,---,0.00,VWS V14.01,2013-08-04 18:07:00,
2013-08-04 14:13:00,75.4,68.4,29.98,SW,227,1.0,1.0,79,0.00,,---,0.00,VWS V14.01,2013-08-04 18:13:00,
2013-08-04 14:17:00,75.7,67.6,29.98,NW,310,2.0,2.0,76,0.00,,---,0.00,VWS V14.01,2013-08-04 18:17:00,
2013-08-04 14:23:00,75.6,65.5,29.98,West,281,1.0,4.0,71,0.00,,---,0.00,VWS V14.01,2013-08-04 18:23:00,
2013-08-04 14:28:00,75.1,66.2,29.98,NW,311,1.0,1.0,74,0.00,,---,0.00,VWS V14.01,2013-08-04 18:28:00,
2013-08-04 14:33:00,75.3,67.2,29.98,WNW,293,0.0,1.0,76,0.00,,---,0.00,VWS V14.01,2013-08-04 18:33:00,
2013-08-04 14:38:00,75.4,67.3,29.98,WNW,292,1.0,1.0,76,0.00,,---,0.00,VWS V14.01,2013-08-04 18:38:00,
2013-08-04 14:43:00,75.3,68.3,29.98,WNW,297,1.0,3.0,79,0.00,,---,0.00,VWS V14.01,2013-08-04 18:43:00,
2013-08-04 14:48:00,75.8,67.3,29.98,WNW,286,1.0,3.0,75,0.00,,---,0.00,VWS V14.01,2013-08-04 18:48:00,
2013-08-04 14:53:00,76.2,66.9,29.98,NNW,337,5.0,5.0,73,0.00,,---,0.00,VWS V14.01,2013-08-04 18:53:00,
2013-08-04 14:57:00,75.9,66.2,29.98,WNW,282,2.0,2.0,72,0.00,,---,0.00,VWS V14.01,2013-08-04 18:57:00,
2013-08-04 15:03:00,75.8,66.5,29.98,West,270,0.0,1.0,73,0.00,,---,0.00,VWS V14.01,2013-08-04 19:03:00,
2013-08-04 15:08:00,74.7,66.6,29.98,WNW,291,0.0,1.0,76,0.00,,---,0.00,VWS V14.01,2013-08-04 19:08:00,
2013-08-04 15:13:00,75.2,67.1,29.98,WNW,286,2.0,2.0,76,0.00,,---,0.00,VWS V14.01,2013-08-04 19:13:00,
2013-08-04 15:17:00,75.2,66.3,29.98,WNW,295,1.0,2.0,74,0.00,,---,0.00,VWS V14.01,2013-08-04 19:17:00,
2013-08-04 15:23:00,73.9,66.2,29.98,West,268,1.0,3.0,77,0.00,,---,0.00,VWS V14.01,2013-08-04 19:23:00,
2013-08-04 15:28:00,73.8,66.5,29.98,NW,319,0.0,1.0,78,0.00,,---,0.00,VWS V14.01,2013-08-04 19:28:00,
2013-08-04 15:33:00,73.5,67.7,29.98,WNW,289,0.0,2.0,82,0.00,,---,0.00,VWS V14.01,2013-08-04 19:33:00,
2013-08-04 15:38:00,74.4,69.3,29.98,NW,308,1.0,1.0,84,0.00,,---,0.00,VWS V14.01,2013-08-04 19:38:00,
2013-08-04 15:43:00,74.2,66.2,29.98,WNW,284,1.0,2.0,76,0.00,,---,0.00,VWS V14.01,2013-08-04 19:43:00,
2013-08-04 15:48:00,74.6,68.4,29.98,WSW,255,1.0,2.0,81,0.00,,---,0.00,VWS V14.01,2013-08-04 19:48:00,
2013-08-04 15:53:00,74.7,67.4,29.97,West,273,1.0,2.0,78,0.00,,---,0.00,VWS V14.01,2013-08-04 19:53:00,
2013-08-04 15:58:00,74.3,67.4,29.97,WNW,292,1.0,1.0,79,0.00,,---,0.00,VWS V14.01,2013-08-04 19:58:00,
2013-08-04 16:02:00,73.5,68.0,29.98,WNW,295,1.0,3.0,83,0.00,,---,0.00,VWS V14.01,2013-08-04 20:02:00,
2013-08-04 16:08:00,72.1,65.9,29.97,WNW,294,0.0,1.0,81,0.00,,---,0.00,VWS V14.01,2013-08-04 20:08:00,
2013-08-04 16:13:00,72.4,67.3,29.97,WSW,242,0.0,1.0,84,0.00,,---,0.00,VWS V14.01,2013-08-04 20:13:00,
2013-08-04 16:17:00,73.5,65.9,29.97,WNW,300,1.0,1.0,77,0.00,,---,0.00,VWS V14.01,2013-08-04 20:17:00,
2013-08-04 16:23:00,72.4,66.6,29.97,West,272,0.0,2.0,82,0.00,,---,0.00,VWS V14.01,2013-08-04 20:23:00,
2013-08-04 16:28:00,71.6,66.5,29.97,West,279,1.0,1.0,84,0.00,,---,0.00,VWS V14.01,2013-08-04 20:28:00,
2013-08-04 16:33:00,71.1,66.4,29.97,NNW,341,4.0,4.0,85,0.00,,---,0.00,VWS V14.01,2013-08-04 20:33:00,
2013-08-04 16:38:00,71.0,66.6,29.97,NW,309,1.0,2.0,86,0.00,,---,0.00,VWS V14.01,2013-08-04 20:38:00,
2013-08-04 16:43:00,71.6,67.2,29.97,WNW,289,1.0,3.0,86,0.00,,---,0.00,VWS V14.01,2013-08-04 20:43:00,
2013-08-04 16:48:00,71.7,66.6,29.97,WNW,284,1.0,2.0,84,0.00,,---,0.00,VWS V14.01,2013-08-04 20:48:00,
2013-08-04 16:52:00,71.3,66.6,29.97,WNW,284,1.0,3.0,85,0.00,,---,0.00,VWS V14.01,2013-08-04 20:52:00,
2013-08-04 16:58:00,71.1,65.7,29.98,NW,326,1.0,2.0,83,0.00,,---,0.00,VWS V14.01,2013-08-04 20:58:00,
2013-08-04 17:03:00,72.0,67.9,29.97,West,262,0.0,1.0,87,0.00,,---,0.00,VWS V14.01,2013-08-04 21:03:00,
2013-08-04 17:08:00,71.8,66.7,29.97,WNW,295,0.0,2.0,84,0.00,,---,0.00,VWS V14.01,2013-08-04 21:08:00,
2013-08-04 17:12:00,71.1,66.4,29.97,WNW,282,0.0,1.0,85,0.00,,---,0.00,VWS V14.01,2013-08-04 21:12:00,
2013-08-04 17:18:00,71.3,66.9,29.97,West,268,1.0,2.0,86,0.00,,---,0.00,VWS V14.01,2013-08-04 21:18:00,
2013-08-04 17:23:00,71.2,66.5,29.97,West,264,0.0,1.0,85,0.00,,---,0.00,VWS V14.01,2013-08-04 21:23:00,
2013-08-04 17:28:00,71.0,65.9,29.97,WNW,289,0.0,1.0,84,0.00,,---,0.00,VWS V14.01,2013-08-04 21:28:00,
2013-08-04 17:33:00,71.3,67.2,29.97,West,270,1.0,3.0,87,0.00,,---,0.00,VWS V14.01,2013-08-04 21:33:00,
2013-08-04 17:38:00,70.9,65.8,29.97,WNW,301,1.0,2.0,84,0.00,,---,0.00,VWS V14.01,2013-08-04 21:38:00,
2013-08-04 17:43:00,70.4,65.7,29.97,West,278,1.0,1.0,85,0.00,,---,0.00,VWS V14.01,2013-08-04 21:43:00,
2013-08-04 17:48:00,70.1,66.7,29.97,ESE,106,0.0,2.0,89,0.00,,---,0.00,VWS V14.01,2013-08-04 21:48:00,
2013-08-04 17:49:00,70.0,64.6,29.97,WSW,257,1.0,2.0,83,0.00,,---,0.00,VWS V14.01,2013-08-04 21:49:00,
2013-08-04 17:54:00,70.0,65.6,29.97,West,261,1.0,2.0,86,0.00,,---,0.00,VWS V14.01,2013-08-04 21:54:00,
2013-08-04 17:59:00,69.7,66.0,29.97,SSW,195,1.0,1.0,88,0.00,,---,0.00,VWS V14.01,2013-08-04 21:59:00,
2013-08-04 18:04:00,69.6,65.9,29.97,WSW,257,1.0,1.0,88,0.00,,---,0.00,VWS V14.01,2013-08-04 22:04:00,
2013-08-04 18:09:00,69.5,65.5,29.97,WSW,257,0.0,1.0,87,0.00,,---,0.00,VWS V14.01,2013-08-04 22:09:00,
2013-08-04 18:14:00,69.0,65.0,29.97,West,262,0.0,1.0,87,0.00,,---,0.00,VWS V14.01,2013-08-04 22:14:00,
2013-08-04 18:19:00,68.7,65.0,29.97,WSW,258,0.0,0.0,88,0.00,,---,0.00,VWS V14.01,2013-08-04 22:19:00,
2013-08-04 18:24:00,68.5,64.8,29.97,West,275,0.0,1.0,88,0.00,,---,0.00,VWS V14.01,2013-08-04 22:24:00,
2013-08-04 18:29:00,68.1,64.7,29.97,West,275,0.0,1.0,89,0.00,,---,0.00,VWS V14.01,2013-08-04 22:29:00,
2013-08-04 18:34:00,67.8,64.8,29.96,West,275,0.0,0.0,90,0.00,,---,0.00,VWS V14.01,2013-08-04 22:34:00,
2013-08-04 18:39:00,67.6,64.6,29.96,West,275,0.0,1.0,90,0.00,,---,0.00,VWS V14.01,2013-08-04 22:39:00,
2013-08-04 18:44:00,67.3,64.0,29.96,West,275,1.0,2.0,89,0.00,,---,0.00,VWS V14.01,2013-08-04 22:44:00,
2013-08-04 18:49:00,67.0,63.0,29.96,West,275,1.0,1.0,87,0.00,,---,0.00,VWS V14.01,2013-08-04 22:49:00,
2013-08-04 18:54:00,66.8,62.2,29.96,West,275,0.0,1.0,85,0.00,,---,0.00,VWS V14.01,2013-08-04 22:54:00,
2013-08-04 18:59:00,66.8,62.2,29.97,West,271,0.0,2.0,85,0.00,,---,0.00,VWS V14.01,2013-08-04 22:59:00,
2013-08-04 19:04:00,66.5,62.2,29.97,West,271,0.0,1.0,86,0.00,,---,0.00,VWS V14.01,2013-08-04 23:04:00,
2013-08-04 19:09:00,66.4,62.7,29.97,West,271,0.0,1.0,88,0.00,,---,0.00,VWS V14.01,2013-08-04 23:09:00,
2013-08-04 19:14:00,66.2,61.9,29.97,West,271,0.0,1.0,86,0.00,,---,0.00,VWS V14.01,2013-08-04 23:14:00,
2013-08-04 19:19:00,66.2,61.6,29.97,West,271,0.0,0.0,85,0.00,,---,0.00,VWS V14.01,2013-08-04 23:19:00,
2013-08-04 19:24:00,66.2,60.9,29.97,West,271,0.0,1.0,83,0.00,,---,0.00,VWS V14.01,2013-08-04 23:24:00,
2013-08-04 19:29:00,66.3,60.7,29.98,West,271,1.0,1.0,82,0.00,,---,0.00,VWS V14.01,2013-08-04 23:29:00,
2013-08-04 19:34:00,66.5,60.5,29.98,West,271,0.0,0.0,81,0.00,,---,0.00,VWS V14.01,2013-08-04 23:34:00,
2013-08-04 19:39:00,66.4,61.1,29.98,West,271,0.0,0.0,83,0.00,,---,0.00,VWS V14.01,2013-08-04 23:39:00,
2013-08-04 19:44:00,66.1,60.8,29.98,West,271,0.0,0.0,83,0.00,,---,0.00,VWS V14.01,2013-08-04 23:44:00,
2013-08-04 19:49:00,66.0,61.0,29.99,West,270,0.0,0.0,84,0.00,,---,0.00,VWS V14.01,2013-08-04 23:49:00,
2013-08-04 19:54:00,65.6,61.3,29.99,West,271,1.0,1.0,86,0.00,,---,0.00,VWS V14.01,2013-08-04 23:54:00,
2013-08-04 19:59:00,65.3,61.3,29.99,West,270,0.0,0.0,87,0.00,,---,0.00,VWS V14.01,2013-08-04 23:59:00,
2013-08-04 20:04:00,65.0,61.4,29.98,West,270,0.0,0.0,88,0.00,,---,0.00,VWS V14.01,2013-08-05 00:04:00,
2013-08-04 20:09:00,64.7,61.1,29.99,West,270,0.0,1.0,88,0.00,,---,0.00,VWS V14.01,2013-08-05 00:09:00,
2013-08-04 20:14:00,64.5,60.9,29.99,West,270,0.0,1.0,88,0.00,,---,0.00,VWS V14.01,2013-08-05 00:14:00,
2013-08-04 20:19:00,64.2,60.3,29.98,West,270,0.0,0.0,87,0.00,,---,0.00,VWS V14.01,2013-08-05 00:19:00,
2013-08-04 20:24:00,64.0,59.7,29.98,West,271,0.0,1.0,86,0.00,,---,0.00,VWS V14.01,2013-08-05 00:24:00,
2013-08-04 20:29:00,63.8,59.5,29.99,West,271,0.0,0.0,86,0.00,,---,0.00,VWS V14.01,2013-08-05 00:29:00,
2013-08-04 20:34:00,63.7,59.1,29.99,West,270,0.0,1.0,85,0.00,,---,0.00,VWS V14.01,2013-08-05 00:34:00,
2013-08-04 20:39:00,63.9,59.0,29.99,West,270,0.0,0.0,84,0.00,,---,0.00,VWS V14.01,2013-08-05 00:39:00,
2013-08-04 20:44:00,63.7,58.8,29.99,West,270,0.0,0.0,84,0.00,,---,0.00,VWS V14.01,2013-08-05 00:44:00,
2013-08-04 20:49:00,63.8,59.2,29.99,West,270,0.0,1.0,85,0.00,,---,0.00,VWS V14.01,2013-08-05 00:49:00,
2013-08-04 20:54:00,63.7,59.1,29.99,West,270,0.0,1.0,85,0.00,,---,0.00,VWS V14.01,2013-08-05 00:54:00,
2013-08-04 20:58:00,63.7,59.8,29.99,West,271,0.0,1.0,87,0.00,,---,0.00,VWS V14.01,2013-08-05 00:58:00,
2013-08-04 21:03:00,63.6,60.3,29.99,West,270,0.0,2.0,89,0.00,,---,0.00,VWS V14.01,2013-08-05 01:03:00,
2013-08-04 21:09:00,63.5,60.2,30.00,West,270,2.0,2.0,89,0.00,,---,0.00,VWS V14.01,2013-08-05 01:09:00,
2013-08-04 21:13:00,63.1,60.1,30.00,West,270,2.0,2.0,90,0.00,,---,0.00,VWS V14.01,2013-08-05 01:13:00,
2013-08-04 21:18:00,62.7,59.7,30.00,West,270,3.0,3.0,90,0.00,,---,0.00,VWS V14.01,2013-08-05 01:18:00,
2013-08-04 21:23:00,62.5,59.2,30.00,West,270,2.0,3.0,89,0.00,,---,0.00,VWS V14.01,2013-08-05 01:23:00,
2013-08-04 21:28:00,62.4,59.1,30.00,West,270,2.0,3.0,89,0.00,,---,0.00,VWS V14.01,2013-08-05 01:28:00,
2013-08-04 21:34:00,62.6,59.3,30.00,West,269,2.0,3.0,89,0.00,,---,0.00,VWS V14.01,2013-08-05 01:34:00,
2013-08-04 21:39:00,62.7,59.4,30.00,West,268,2.0,3.0,89,0.00,,---,0.00,VWS V14.01,2013-08-05 01:39:00,
2013-08-04 21:44:00,62.6,59.6,30.01,West,272,2.0,3.0,90,0.00,,---,0.00,VWS V14.01,2013-08-05 01:44:00,
2013-08-04 21:49:00,62.6,59.3,30.01,West,274,2.0,3.0,89,0.00,,---,0.00,VWS V14.01,2013-08-05 01:49:00,
2013-08-04 21:54:00,62.7,59.4,30.01,West,274,1.0,2.0,89,0.00,,---,0.00,VWS V14.01,2013-08-05 01:54:00,
2013-08-04 21:59:00,62.6,59.6,30.01,West,274,2.0,2.0,90,0.00,,---,0.00,VWS V14.01,2013-08-05 01:59:00,
2013-08-04 22:04:00,62.5,59.8,30.01,West,274,2.0,2.0,91,0.00,,---,0.00,VWS V14.01,2013-08-05 02:04:00,
2013-08-04 22:09:00,62.4,59.7,30.01,West,274,2.0,4.0,91,0.00,,---,0.00,VWS V14.01,2013-08-05 02:09:00,
2013-08-04 22:14:00,62.2,59.5,30.01,West,274,1.0,3.0,91,0.00,,---,0.00,VWS V14.01,2013-08-05 02:14:00,
2013-08-04 22:19:00,62.1,59.1,30.01,West,274,3.0,3.0,90,0.00,,---,0.00,VWS V14.01,2013-08-05 02:19:00,
2013-08-04 22:24:00,62.1,58.8,30.01,West,277,3.0,3.0,89,0.00,,---,0.00,VWS V14.01,2013-08-05 02:24:00,
2013-08-04 22:29:00,62.0,58.4,30.01,West,276,2.0,2.0,88,0.00,,---,0.00,VWS V14.01,2013-08-05 02:29:00,
2013-08-04 22:34:00,62.0,58.4,30.02,WNW,282,2.0,2.0,88,0.00,,---,0.00,VWS V14.01,2013-08-05 02:34:00,
2013-08-04 22:39:00,62.0,58.4,30.02,WNW,282,2.0,3.0,88,0.00,,---,0.00,VWS V14.01,2013-08-05 02:39:00,
2013-08-04 22:43:00,62.0,58.4,30.02,WNW,282,2.0,2.0,88,0.00,,---,0.00,VWS V14.01,2013-08-05 02:43:00,
2013-08-04 22:49:00,61.9,58.3,30.02,West,278,2.0,3.0,88,0.00,,---,0.00,VWS V14.01,2013-08-05 02:49:00,
2013-08-04 22:54:00,61.8,58.2,30.02,West,280,3.0,3.0,88,0.00,,---,0.00,VWS V14.01,2013-08-05 02:54:00,
2013-08-04 22:59:00,61.7,58.1,30.02,West,280,2.0,3.0,88,0.00,,---,0.00,VWS V14.01,2013-08-05 02:59:00,
2013-08-04 23:04:00,61.5,58.2,30.02,West,278,3.0,3.0,89,0.00,,---,0.00,VWS V14.01,2013-08-05 03:04:00,
2013-08-04 23:09:00,61.2,57.9,30.01,WNW,282,2.0,3.0,89,0.00,,---,0.00,VWS V14.01,2013-08-05 03:09:00,
2013-08-04 23:13:00,61.0,57.1,30.01,WNW,284,3.0,3.0,87,0.00,,---,0.00,VWS V14.01,2013-08-05 03:13:00,
2013-08-04 23:19:00,60.9,57.0,30.01,WNW,283,2.0,3.0,87,0.00,,---,0.00,VWS V14.01,2013-08-05 03:19:00,
2013-08-04 23:23:00,60.8,56.6,30.01,WNW,283,3.0,3.0,86,0.00,,---,0.00,VWS V14.01,2013-08-05 03:23:00,
2013-08-04 23:29:00,60.7,56.8,30.01,WNW,283,3.0,4.0,87,0.00,,---,0.00,VWS V14.01,2013-08-05 03:29:00,
2013-08-04 23:34:00,60.6,56.7,30.02,WNW,282,4.0,4.0,87,0.00,,---,0.00,VWS V14.01,2013-08-05 03:34:00,
2013-08-04 23:39:00,60.5,56.9,30.02,WNW,284,3.0,4.0,88,0.00,,---,0.00,VWS V14.01,2013-08-05 03:39:00,
2013-08-04 23:43:00,60.3,57.0,30.02,WNW,287,2.0,3.0,89,0.00,,---,0.00,VWS V14.01,2013-08-05 03:43:00,
2013-08-04 23:49:00,60.2,57.3,30.02,WNW,285,3.0,3.0,90,0.00,,---,0.00,VWS V14.01,2013-08-05 03:49:00,
2013-08-04 23:54:00,60.2,57.3,30.03,West,279,3.0,3.0,90,0.00,,---,0.00,VWS V14.01,2013-08-05 03:54:00,
2013-08-04 23:59:00,60.2,57.0,30.02,WNW,299,2.0,4.0,89,0.00,,---,0.00,VWS V14.01,2013-08-05 03:59:00,